When you browse on this site, cookies collect data to enhance your experience and personalize the content and advertising you see.
Visit our Privacy Policy to learn more. By continuing to use the site, you agree to this use of cookies and data.
  • In United Kingdom
  • List of Countries
  • For 7 days
  • Water Temperature
  • Weather Map
  • Weather Widgets
  • user-avatar
    Login

    Hourly Weather Wakefield

    Today, 31 May, Sunday

    Time Temperature Precipitation Wind Pressure Humidity
    00:00 +10°C° 0 mm 2 mps 762 mmHg 88%
    01:00 +9°C° 0 mm 2 mps 762 mmHg 89%
    02:00 +9°C° 0 mm 2 mps 762 mmHg 90%
    03:00 +9°C° 0 mm 2 mps 762 mmHg 91%
    04:00 +9°C° 0 mm 2 mps 762 mmHg 89%
    05:00 +10°C° 0 mm 2 mps 762 mmHg 87%
    06:00 +12°C° 0 mm 2 mps 762 mmHg 87%
    07:00 +13°C° 0 mm 3 mps 762 mmHg 78%
    08:00 +14°C° 0 mm 3 mps 762 mmHg 69%
    09:00 +17°C° 0 mm 3 mps 762 mmHg 60%
    10:00 +18°C° 0 mm 4 mps 762 mmHg 57%
    11:00 +20°C° 0 mm 4 mps 762 mmHg 55%
    12:00 +21°C° 0 mm 5 mps 762 mmHg 52%
    13:00 +21°C° 0 mm 5 mps 762 mmHg 51%
    14:00 +21°C° 0 mm 5 mps 762 mmHg 51%
    15:00 +22°C° 0 mm 5 mps 762 mmHg 50%
    16:00 +21°C° 0 mm 5 mps 762 mmHg 52%
    17:00 +20°C° 0 mm 5 mps 762 mmHg 54%
    18:00 +19°C° 0 mm 4 mps 762 mmHg 56%
    19:00 +17°C° 0 mm 4 mps 763 mmHg 61%
    20:00 +16°C° 0 mm 3 mps 763 mmHg 67%
    21:00 +13°C° 0 mm 3 mps 763 mmHg 73%
    22:00 +12°C° 0 mm 3 mps 763 mmHg 75%
    23:00 +12°C° 0 mm 2 mps 764 mmHg 77%

    Tomorrow, 1 June, Monday

    Time Temperature Precipitation Wind Pressure Humidity
    00:00 +10°C° 0 mm 2 mps 764 mmHg 79%
    01:00 +10°C° 0 mm 2 mps 764 mmHg 81%
    02:00 +10°C° 0 mm 2 mps 763 mmHg 83%
    03:00 +9°C° 0 mm 2 mps 763 mmHg 85%
    04:00 +10°C° 0 mm 2 mps 763 mmHg 83%
    05:00 +12°C° 0 mm 2 mps 763 mmHg 82%
    06:00 +11°C° 0 mm 3 mps 764 mmHg 81%
    07:00 +13°C° 0 mm 3 mps 763 mmHg 75%
    08:00 +16°C° 0 mm 3 mps 763 mmHg 69%
    09:00 +18°C° 0 mm 4 mps 763 mmHg 63%
    10:00 +18°C° 0 mm 4 mps 763 mmHg 59%
    11:00 +19°C° 0 mm 4 mps 763 mmHg 55%
    12:00 +20°C° 0 mm 4 mps 763 mmHg 52%
    13:00 +20°C° 0 mm 4 mps 763 mmHg 53%
    14:00 +20°C° 0 mm 4 mps 763 mmHg 55%
    15:00 +20°C° 0 mm 4 mps 763 mmHg 57%
    16:00 +20°C° 0 mm 4 mps 763 mmHg 58%
    17:00 +19°C° 0 mm 4 mps 762 mmHg 59%
    18:00 +18°C° 0 mm 4 mps 762 mmHg 61%
    19:00 +15°C° 0 mm 4 mps 762 mmHg 65%
    20:00 +13°C° 0 mm 3 mps 763 mmHg 70%
    21:00 +12°C° 0 mm 3 mps 763 mmHg 75%
    22:00 +12°C° 0 mm 2 mps 763 mmHg 78%
    23:00 +10°C° 0 mm 2 mps 763 mmHg 81%

    Day after tomorrow, 2 June, Tuesday

    Time Temperature Precipitation Wind Pressure Humidity
    00:00 +10°C° 0 mm 2 mps 762 mmHg 84%
    01:00 +10°C° 0 mm 2 mps 762 mmHg 85%
    02:00 +9°C° 0 mm 2 mps 762 mmHg 86%
    03:00 +9°C° 0 mm 2 mps 762 mmHg 88%
    04:00 +10°C° 0 mm 2 mps 762 mmHg 86%
    05:00 +12°C° 0 mm 2 mps 761 mmHg 84%
    06:00 +12°C° 0 mm 2 mps 761 mmHg 82%
    07:00 +14°C° 0 mm 2 mps 761 mmHg 76%
    08:00 +15°C° 0 mm 2 mps 761 mmHg 69%
    09:00 +17°C° 0 mm 2 mps 760 mmHg 62%
    10:00 +18°C° 0 mm 2 mps 760 mmHg 57%
    11:00 +19°C° 0 mm 2 mps 760 mmHg 52%
    12:00 +20°C° 0 mm 2 mps 759 mmHg 47%
    13:00 +21°C° 0 mm 2 mps 759 mmHg 46%
    14:00 +21°C° 0 mm 2 mps 758 mmHg 45%
    15:00 +23°C° 0 mm 2 mps 757 mmHg 44%
    16:00 +21°C° 0 mm 2 mps 757 mmHg 48%
    17:00 +21°C° 0 mm 2 mps 757 mmHg 53%
    18:00 +20°C° 0 mm 2 mps 756 mmHg 57%
    19:00 +18°C° 0 mm 2 mps 756 mmHg 64%
    20:00 +16°C° 0 mm 2 mps 756 mmHg 71%
    21:00 +14°C° 0 mm 1 mps 756 mmHg 78%
    22:00 +14°C° 0 mm 1 mps 755 mmHg 78%
    23:00 +13°C° 0 mm 1 mps 755 mmHg 78%

    3 June, Wednesday

    Time Temperature Precipitation Wind Pressure Humidity
    00:00 +13°C° 0 mm 1 mps 754 mmHg 79%
    01:00 +12°C° 0 mm 1 mps 754 mmHg 79%
    02:00 +12°C° 0 mm 1 mps 754 mmHg 78%
    03:00 +12°C° 0 mm 2 mps 753 mmHg 78%
    04:00 +12°C° 0.3 mm 2 mps 753 mmHg 79%
    05:00 +11°C° 0.3 mm 3 mps 753 mmHg 79%
    06:00 +11°C° 0.3 mm 3 mps 753 mmHg 80%
    07:00 +12°C° 0.1 mm 4 mps 753 mmHg 77%
    08:00 +13°C° 0.1 mm 4 mps 753 mmHg 73%
    09:00 +14°C° 0.1 mm 4 mps 753 mmHg 70%
    10:00 +15°C° 0 mm 5 mps 753 mmHg 65%
    11:00 +16°C° 0 mm 5 mps 753 mmHg 61%
    12:00 +17°C° 0 mm 6 mps 753 mmHg 56%
    13:00 +17°C° 0 mm 6 mps 753 mmHg 57%
    14:00 +17°C° 0 mm 5 mps 753 mmHg 57%
    15:00 +17°C° 0 mm 5 mps 752 mmHg 58%
    16:00 +16°C° 0.1 mm 5 mps 752 mmHg 62%
    17:00 +15°C° 0.1 mm 5 mps 752 mmHg 66%
    18:00 +14°C° 0.1 mm 5 mps 752 mmHg 71%
    19:00 +13°C° 0.1 mm 5 mps 753 mmHg 76%
    20:00 +12°C° 0.1 mm 4 mps 753 mmHg 82%
    21:00 +11°C° 0.1 mm 4 mps 753 mmHg 87%
    22:00 +10°C° 0.1 mm 4 mps 753 mmHg 88%
    23:00 +10°C° 0.1 mm 3 mps 753 mmHg 88%

    4 June, Thursday

    Time Temperature Precipitation Wind Pressure Humidity
    00:00 +10°C° 0.1 mm 3 mps 753 mmHg 89%
    01:00 +10°C° 0.1 mm 3 mps 752 mmHg 88%
    02:00 +9°C° 0.1 mm 3 mps 752 mmHg 87%
    03:00 +9°C° 0.1 mm 2 mps 752 mmHg 87%
    04:00 +9°C° 0 mm 2 mps 752 mmHg 84%
    05:00 +9°C° 0 mm 2 mps 751 mmHg 82%
    06:00 +10°C° 0 mm 1 mps 751 mmHg 80%
    07:00 +12°C° 0 mm 1 mps 751 mmHg 73%
    08:00 +13°C° 0 mm 1 mps 751 mmHg 67%
    09:00 +14°C° 0 mm 2 mps 751 mmHg 60%
    10:00 +15°C° 0 mm 2 mps 751 mmHg 59%
    11:00 +16°C° 0 mm 3 mps 750 mmHg 57%
    12:00 +17°C° 0 mm 4 mps 750 mmHg 55%
    13:00 +17°C° 0 mm 4 mps 750 mmHg 54%
    14:00 +17°C° 0 mm 4 mps 750 mmHg 53%
    15:00 +16°C° 0 mm 5 mps 749 mmHg 52%
    16:00 +16°C° 0 mm 5 mps 749 mmHg 57%
    17:00 +15°C° 0 mm 5 mps 749 mmHg 62%
    18:00 +15°C° 0 mm 5 mps 749 mmHg 67%
    19:00 +14°C° 0 mm 4 mps 749 mmHg 71%
    20:00 +12°C° 0 mm 4 mps 749 mmHg 74%
    21:00 +11°C° 0 mm 4 mps 749 mmHg 78%
    22:00 +11°C° 0 mm 4 mps 749 mmHg 80%
    23:00 +10°C° 0 mm 4 mps 749 mmHg 82%

    5 June, Friday

    Time Temperature Precipitation Wind Pressure Humidity
    00:00 +10°C° 0 mm 4 mps 748 mmHg 84%
    01:00 +10°C° 0 mm 4 mps 748 mmHg 84%
    02:00 +10°C° 0 mm 5 mps 747 mmHg 83%
    03:00 +10°C° 0 mm 5 mps 747 mmHg 83%
    04:00 +10°C° 0 mm 5 mps 747 mmHg 81%
    05:00 +11°C° 0 mm 6 mps 746 mmHg 79%
    06:00 +11°C° 0 mm 6 mps 746 mmHg 76%
    07:00 +13°C° 0 mm 6 mps 746 mmHg 76%
    08:00 +13°C° 0 mm 6 mps 746 mmHg 77%
    09:00 +14°C° 0 mm 6 mps 746 mmHg 77%
    10:00 +14°C° 0 mm 6 mps 746 mmHg 72%
    11:00 +15°C° 0 mm 7 mps 746 mmHg 67%
    12:00 +15°C° 0 mm 7 mps 746 mmHg 62%
    13:00 +15°C° 0 mm 7 mps 746 mmHg 58%
    14:00 +16°C° 0 mm 7 mps 746 mmHg 55%
    15:00 +16°C° 0 mm 7 mps 746 mmHg 52%
    16:00 +15°C° 0 mm 7 mps 746 mmHg 54%
    17:00 +14°C° 0 mm 6 mps 746 mmHg 56%
    18:00 +13°C° 0 mm 6 mps 747 mmHg 59%
    19:00 +12°C° 0 mm 5 mps 747 mmHg 64%
    20:00 +10°C° 0 mm 5 mps 747 mmHg 68%
    21:00 +10°C° 0 mm 4 mps 748 mmHg 73%
    22:00 +8°C° 0 mm 4 mps 748 mmHg 74%
    23:00 +9°C° 0 mm 3 mps 748 mmHg 75%
    Show more